{"data":{"norad_id":62704,"epoch":"2026-09-22T20:54:11.043360Z","epoch_age_seconds":114818,"freshness":"FRESH","line1":"1 62704U 25009CZ  26265.87096115  .00000410  00000+0  45128-4 0  9991","line2":"2 62704  97.6954 341.6672 0008146 108.7073 251.5031 14.92712996 91899","mean_motion":14.92712996,"eccentricity":0.0008146,"inclination_deg":97.6954,"raan_deg":341.6672,"arg_perigee_deg":108.7073,"mean_anomaly_deg":251.5031,"bstar":4.5128e-5,"rev_number":9189,"period_min":96.468644934341,"perigee_km":583.80463761752,"apogee_km":595.1562799814,"semimajor_km":6967.6174587995,"source":"CELESTRAK","updated_at":"2026-09-23T09:00:21.586467Z"}}